Wind_Speed
10 11 11 11 10 9 9 8 8 8 8 8 8 7 7 7 7 8 8 8 8 8 9 9 10 11 11 11 11 10 10 10 10 10 11 11 12 13 13 14 15 15 15
10 10 11 10 10 9 9 9 9 9 9 9 9 9 8 8 8 9 9 9 9 9 9 10 11 12 12 12 12 11 11 12 12 12 13 13 13 14 15 15 15 15 16
11 10 10 10 9 9 9 9 9 9 9 9 10 10 10 9 9 10 10 10 10 10 11 12 12 13 13 13 13 13 13 14 14 14 14 14 14 15 16 16 16 17 17
11 10 10 10 9 10 9 9 9 9 10 10 10 11 11 10 10 10 11 11 11 11 12 13 13 13 14 14 14 15 15 15 15 15 16 16 16 16 16 17 18 18 18
12 11 10 10 10 10 10 9 9 9 10 11 11 11 11 11 11 11 12 12 12 13 13 13 14 14 15 15 15 16 16 16 16 17 17 17 18 18 18 19 19 19 19
13 12 11 11 11 11 11 10 10 11 11 11 11 11 11 12 12 13 13 13 13 14 14 14 14 14 15 16 16 17 18 18 18 19 19 19 19 19 20 19 19 19 20
13 13 12 12 11 12 12 11 12 12 12 12 11 11 12 12 13 13 14 14 14 14 14 14 15 15 16 17 17 18 18 19 19 20 20 19 19 20 21 20 20 19 20
13 13 13 13 12 12 13 13 13 13 13 12 12 12 12 13 14 14 14 15 15 14 14 15 16 16 17 18 18 19 19 19 20 20 20 20 21 21 21 21 21 20 19
14 14 14 13 13 13 13 13 14 14 13 13 12 13 13 14 14 14 15 15 15 14 15 16 18 18 19 19 19 19 20 20 21 21 21 21 21 22 22 21 21 20 20
15 15 14 14 14 14 14 14 13 14 14 13 13 13 14 14 14 15 15 15 15 16 17 17 19 19 20 20 20 20 20 20 21 21 21 21 21 22 21 21 21 21 21
16 15 15 14 14 14 14 14 13 14 14 14 14 14 15 14 14 14 15 16 17 18 19 19 20 21 21 21 21 21 21 22 22 22 22 22 22 22 22 22 22 22 22
16 15 15 15 15 14 14 14 14 14 14 14 14 15 15 15 15 15 16 17 19 20 20 21 21 22 23 23 23 23 23 23 23 23 23 22 23 23 23 23 23 23 24
16 15 15 15 16 15 14 15 15 15 15 15 15 15 15 15 16 17 17 19 20 21 22 23 23 24 24 24 25 25 24 24 24 24 24 23 23 23 24 24 24 24 24
17 16 16 16 16 16 16 16 17 17 17 17 16 16 16 17 17 18 19 20 21 22 23 24 24 25 24 25 25 25 26 25 25 25 24 24 24 24 25 24 24 24 25
18 16 16 16 16 16 17 17 18 18 18 17 17 17 17 18 19 20 21 22 22 23 25 26 26 26 25 26 26 26 26 25 25 25 25 24 24 25 25 26 25 26 26
18 17 17 17 18 17 17 17 17 17 17 17 17 17 18 19 20 22 23 23 24 26 26 27 27 27 26 25 26 26 26 26 26 26 26 25 26 26 27 27 27 27 27
20 18 18 18 19 19 19 18 18 17 17 18 17 18 19 20 22 24 24 25 27 27 27 27 27 27 26 26 26 26 26 27 27 27 27 27 28 28 28 28 28 27 27
20 19 18 18 18 19 18 18 18 18 18 19 19 20 21 22 24 25 26 27 28 27 27 26 27 27 27 27 28 28 28 28 28 29 29 29 29 28 28 28 27 27 27
19 19 18 18 18 19 19 19 19 19 19 20 21 22 23 24 25 26 26 26 26 26 25 26 27 27 28 28 29 29 30 30 30 30 30 29 29 29 28 27 27 27 27
20 20 19 19 19 19 19 19 20 20 20 21 22 23 24 25 25 25 25 25 25 26 27 28 28 28 28 29 30 30 30 30 30 30 30 30 29 29 29 28 28 27 27
21 21 20 20 20 20 20 20 20 20 21 22 23 24 24 25 25 25 25 25 25 26 27 28 28 29 29 30 30 30 30 30 30 30 30 30 30 30 29 29 28 27 26
21 21 20 20 20 21 21 21 20 20 21 22 23 24 25 25 25 25 25 26 27 27 28 28 28 29 29 29 29 30 31 30 30 30 30 30 30 30 29 29 28 28 27
21 21 21 21 21 21 22 21 21 21 22 23 23 24 25 25 26 26 26 27 27 27 28 28 28 29 29 29 30 30 30 30 30 30 30 30 29 29 28 28 27 26 25
23 23 23 22 22 22 22 22 22 22 23 24 23 24 25 25 25 26 26 27 27 27 27 27 28 29 29 29 30 31 31 31 31 30 30 29 28 28 28 27 26 25 24
24 24 24 24 24 23 23 24 23 23 24 24 24 24 25 25 25 25 25 26 27 27 28 28 29 30 31 31 31 32 31 31 30 30 29 28 27 28 27 28 27 25 24
24 25 25 25 24 24 23 23 23 23 23 23 24 25 25 25 26 25 26 27 28 28 28 29 30 30 31 31 31 31 31 31 30 29 28 27 27 27 27 27 26 25 24
Wind_Direction
336 342 345 347 351 353 355 356 358 1 359 356 357 353 349 344 340 336 332 324 324 326 325 321 319 325 328 326 324 320 316 309 303 303 302 301 298 298 298 299 300 299 300
325 334 341 341 343 346 350 350 350 349 350 348 345 345 341 338 336 336 333 326 323 324 323 321 320 323 323 322 320 317 311 307 301 301 300 298 296 295 298 300 299 298 298
317 325 329 332 334 339 339 341 342 339 337 338 338 340 338 333 333 333 332 328 324 325 323 321 322 322 322 320 316 315 312 308 303 301 300 298 296 295 294 293 294 295 296
311 318 321 323 325 329 332 332 333 332 331 332 332 333 335 332 330 330 329 327 322 322 325 323 322 320 320 319 318 316 314 312 307 304 301 299 297 295 293 292 292 292 291
308 313 314 314 314 319 322 321 325 325 325 327 330 330 330 329 329 330 330 327 325 324 325 324 323 321 320 319 318 315 314 311 309 306 303 299 298 297 296 295 293 291 290
307 308 310 309 308 310 310 310 314 318 319 321 324 324 324 326 327 328 327 326 326 324 323 325 324 321 320 318 315 313 313 311 310 307 304 301 300 299 297 295 293 290 289
301 304 309 307 304 304 304 306 307 310 313 314 317 318 321 322 324 323 322 322 322 324 326 327 326 323 322 319 316 313 312 311 310 308 305 302 301 299 298 295 294 291 290
296 301 306 306 302 300 300 300 303 304 306 309 312 314 317 319 321 322 320 320 321 324 327 326 326 324 322 321 319 317 313 311 311 309 306 304 303 300 298 295 293 292 291
293 296 300 301 303 303 299 297 299 300 302 305 308 309 311 316 319 320 322 322 322 322 323 324 324 324 323 322 319 318 316 313 312 309 308 307 305 302 299 296 294 293 293
292 294 295 297 298 301 302 299 296 297 298 299 301 303 308 313 316 317 318 323 323 322 321 321 323 323 322 322 320 316 316 315 313 311 309 306 305 303 298 295 295 294 292
292 291 292 294 297 296 295 298 294 293 293 296 299 302 306 309 314 316 318 320 321 322 320 319 320 321 322 321 319 315 314 313 312 310 308 307 305 302 300 298 296 294 294
289 288 288 289 293 294 291 290 295 294 291 291 297 303 306 307 310 315 316 317 317 319 318 318 317 318 318 317 318 316 312 310 309 308 307 306 304 302 299 299 297 295 294
287 286 287 287 290 292 291 287 292 297 293 295 297 302 304 306 308 311 315 317 316 316 316 317 316 316 317 316 315 314 313 311 310 309 307 305 303 301 300 300 299 297 295
281 284 286 286 286 289 291 291 291 296 297 298 302 303 303 304 308 311 313 315 316 316 316 317 316 316 317 318 317 316 315 313 311 310 307 306 305 303 301 301 300 299 296
281 284 285 283 286 289 291 291 291 292 295 297 300 301 302 305 308 308 310 312 312 314 316 316 316 316 315 315 316 316 315 313 311 309 307 307 307 305 302 299 298 297 295
277 281 283 281 284 287 289 290 292 293 295 297 299 301 301 303 305 306 308 310 311 314 314 315 316 316 316 316 316 316 317 314 312 311 310 309 307 303 301 300 298 296 294
278 280 281 280 283 283 286 288 292 294 294 296 298 299 301 301 303 304 306 309 310 311 313 314 315 316 316 317 318 317 317 315 313 311 309 308 305 302 300 300 299 297 296
279 281 281 280 281 283 284 287 289 291 293 295 295 296 299 301 301 303 305 308 310 311 313 314 314 314 316 317 318 317 317 317 314 311 309 308 307 305 304 301 299 298 298
276 279 280 278 279 281 283 284 287 289 291 293 293 295 297 299 300 302 306 309 310 312 314 314 314 314 314 315 316 318 318 317 315 313 312 310 308 307 306 303 300 299 299
272 275 277 278 278 280 282 283 284 286 288 291 293 295 297 300 302 304 306 307 310 312 312 314 315 314 315 315 316 317 318 317 316 315 313 312 310 309 307 304 301 300 299
271 273 277 279 278 278 280 281 283 286 289 291 294 297 298 300 302 303 304 306 309 311 311 312 314 314 314 314 315 317 317 317 316 315 315 314 312 310 307 304 301 300 298
269 272 275 278 279 279 280 280 282 285 289 291 294 296 299 300 300 302 304 305 308 309 310 311 312 313 313 314 315 317 317 317 316 316 315 314 314 312 309 306 303 300 297
270 273 276 277 278 280 279 278 281 285 288 292 294 296 297 298 299 301 303 304 306 308 309 310 312 313 314 313 314 316 318 318 317 315 315 315 315 313 311 309 306 303 299
269 272 276 276 278 280 282 280 282 285 289 291 294 295 296 298 300 301 303 305 306 308 309 311 312 313 314 314 315 317 318 319 317 316 315 315 315 315 314 312 308 305 301
268 271 273 275 277 279 280 280 281 284 287 290 292 294 296 298 300 301 303 306 308 309 309 310 312 312 312 313 314 316 317 318 318 317 317 314 314 314 314 313 310 306 303
269 272 275 277 278 279 281 282 283 286 288 289 292 294 297 298 299 300 302 305 307 309 310 310 311 313 313 313 314 315 315 315 317 317 317 315 314 314 314 313 312 309 306
Height
5890 5889 5887 5886 5885 5883 5882 5881 5880 5879 5879 5878 5877 5876 5875 5874 5873 5872 5871 5870 5869 5868 5867 5866 5865 5864 5862 5861 5859 5858 5857 5856 5855 5854 5854 5853 5852 5851 5850 5849 5848 5847 5847
5889 5888 5887 5886 5885 5884 5882 5881 5881 5880 5879 5878 5877 5876 5875 5874 5872 5871 5870 5869 5868 5867 5866 5865 5864 5862 5861 5859 5858 5857 5855 5854 5852 5851 5851 5850 5850 5848 5847 5846 5845 5844 5843
5889 5888 5886 5885 5884 5883 5882 5881 5880 5879 5879 5878 5877 5876 5874 5873 5872 5871 5869 5868 5867 5866 5864 5863 5862 5860 5859 5857 5856 5854 5853 5852 5850 5849 5848 5847 5846 5845 5844 5843 5841 5841 5840
5888 5886 5885 5885 5884 5883 5882 5881 5880 5879 5878 5877 5876 5875 5874 5872 5871 5870 5868 5867 5865 5864 5863 5861 5860 5858 5857 5855 5853 5852 5850 5849 5847 5846 5844 5843 5842 5841 5840 5839 5838 5837 5836
5886 5885 5884 5883 5882 5881 5881 5880 5879 5878 5877 5876 5875 5874 5872 5871 5870 5868 5867 5865 5864 5863 5861 5859 5858 5856 5854 5852 5850 5849 5847 5845 5844 5842 5841 5839 5838 5836 5836 5835 5833 5832 5831
5884 5883 5883 5882 5881 5880 5879 5878 5878 5877 5876 5875 5874 5873 5871 5870 5869 5867 5866 5864 5862 5861 5859 5857 5855 5854 5852 5850 5848 5846 5844 5842 5840 5838 5837 5835 5833 5832 5830 5829 5828 5827 5826
5882 5881 5881 5880 5879 5878 5877 5877 5876 5875 5874 5873 5872 5871 5870 5868 5867 5865 5864 5862 5861 5859 5857 5855 5853 5851 5849 5847 5844 5842 5840 5838 5836 5834 5832 5830 5828 5827 5825 5824 5823 5822 5821
5880 5879 5878 5877 5877 5876 5875 5874 5874 5873 5872 5871 5870 5869 5868 5866 5865 5863 5862 5860 5858 5856 5855 5852 5850 5848 5846 5843 5841 5839 5837 5835 5832 5830 5828 5826 5824 5822 5820 5819 5818 5816 5816
5877 5877 5876 5875 5874 5873 5873 5872 5871 5870 5869 5868 5868 5866 5865 5864 5863 5861 5859 5858 5856 5854 5852 5850 5848 5845 5843 5840 5838 5835 5833 5831 5828 5825 5823 5821 5819 5817 5815 5813 5812 5811 5810
5874 5873 5873 5872 5872 5871 5870 5869 5868 5868 5867 5866 5864 5864 5863 5861 5860 5859 5857 5855 5854 5852 5850 5848 5845 5842 5839 5837 5834 5831 5829 5826 5824 5821 5819 5816 5814 5812 5810 5808 5807 5806 5805
5871 5870 5870 5869 5869 5868 5867 5866 5865 5864 5864 5863 5862 5861 5860 5859 5857 5856 5854 5853 5851 5849 5847 5844 5842 5839 5836 5833 5830 5827 5825 5822 5819 5816 5814 5811 5809 5806 5804 5803 5801 5800 5799
5869 5867 5867 5866 5866 5865 5864 5863 5862 5861 5861 5860 5859 5858 5857 5856 5855 5853 5851 5850 5848 5846 5843 5841 5838 5835 5832 5829 5826 5823 5820 5817 5814 5811 5808 5806 5803 5801 5799 5797 5795 5794 5793
5865 5865 5864 5864 5863 5862 5861 5860 5859 5858 5857 5857 5856 5855 5854 5853 5852 5850 5848 5846 5844 5842 5839 5836 5834 5831 5828 5824 5821 5818 5815 5812 5809 5806 5803 5800 5798 5795 5793 5791 5789 5787 5786
5862 5862 5861 5861 5860 5859 5858 5857 5856 5855 5854 5853 5852 5852 5851 5850 5848 5847 5845 5842 5840 5838 5835 5832 5829 5826 5823 5820 5817 5813 5810 5807 5803 5800 5797 5795 5792 5790 5787 5785 5783 5781 5780
5858 5858 5858 5857 5856 5856 5855 5853 5853 5851 5850 5850 5849 5848 5847 5846 5845 5843 5841 5838 5836 5833 5831 5828 5825 5822 5819 5816 5812 5808 5805 5801 5798 5795 5791 5789 5786 5784 5781 5779 5777 5775 5773
5854 5854 5854 5853 5853 5852 5851 5849 5849 5848 5847 5846 5845 5844 5843 5842 5840 5839 5837 5834 5832 5829 5826 5823 5820 5817 5813 5810 5807 5803 5800 5796 5793 5789 5786 5783 5780 5777 5775 5772 5770 5768 5766
5850 5849 5849 5849 5848 5848 5846 5846 5845 5844 5843 5842 5841 5840 5839 5838 5836 5834 5832 5829 5827 5824 5821 5818 5815 5812 5808 5805 5801 5798 5794 5791 5787 5783 5780 5777 5774 5771 5768 5765 5763 5760 5758
5845 5844 5844 5844 5844 5843 5843 5842 5841 5840 5839 5838 5837 5836 5835 5833 5831 5829 5827 5824 5821 5818 5815 5812 5809 5806 5803 5799 5796 5792 5789 5785 5781 5777 5773 5770 5767 5763 5761 5758 5755 5753 5750
5840 5840 5840 5840 5839 5838 5838 5837 5836 5836 5835 5834 5832 5831 5830 5828 5826 5823 5821 5819 5816 5813 5810 5807 5804 5801 5797 5794 5790 5786 5782 5778 5774 5770 5767 5763 5760 5756 5753 5751 5748 5746 5743
5835 5835 5835 5835 5835 5834 5833 5833 5832 5831 5830 5829 5828 5826 5824 5822 5820 5818 5815 5813 5810 5807 5805 5801 5798 5795 5792 5788 5784 5780 5776 5772 5768 5764 5760 5756 5753 5749 5746 5743 5740 5738 5736
5830 5830 5830 5830 5830 5829 5829 5828 5827 5826 5825 5824 5822 5821 5819 5817 5814 5812 5810 5807 5805 5802 5799 5796 5793 5790 5786 5782 5779 5774 5770 5766 5762 5757 5753 5749 5746 5742 5738 5735 5733 5730 5728
5824 5824 5824 5824 5824 5824 5823 5823 5822 5821 5820 5819 5817 5815 5813 5811 5809 5807 5804 5801 5799 5796 5794 5790 5787 5783 5780 5776 5772 5768 5764 5759 5755 5751 5747 5743 5739 5735 5731 5728 5725 5722 5720
5818 5818 5819 5819 5818 5818 5818 5817 5817 5816 5815 5813 5811 5810 5807 5805 5803 5801 5798 5796 5793 5790 5787 5784 5781 5777 5773 5769 5765 5761 5757 5753 5749 5745 5740 5736 5732 5728 5724 5721 5718 5715 5712
5813 5813 5813 5813 5813 5812 5812 5811 5811 5810 5809 5807 5805 5803 5801 5800 5797 5795 5792 5789 5787 5784 5781 5778 5774 5771 5767 5763 5759 5755 5750 5746 5742 5738 5734 5730 5726 5722 5718 5714 5711 5708 5705
5806 5806 5807 5807 5807 5806 5806 5805 5804 5803 5802 5801 5799 5798 5796 5794 5791 5789 5786 5783 5781 5778 5775 5772 5768 5765 5761 5757 5752 5748 5744 5740 5736 5731 5727 5723 5719 5716 5712 5708 5704 5701 5699
5800 5800 5800 5800 5800 5800 5799 5798 5798 5797 5796 5794 5793 5791 5790 5787 5785 5783 5780 5777 5775 5772 5768 5765 5762 5758 5754 5750 5746 5742 5737 5734 5729 5725 5721 5717 5713 5709 5705 5702 5698 5695 5692